EW0844 Weather Reports


time (UTC)temp
C
wind
direction
speed
KPH
gust
KPH
rain 1hr
cm
rain 24hr
cm
rain mn
cm
humidity
%
barometer
mb
20260903203412 20 249 1.6 4.8 0.00 0.00 0.00 59 1021.0
20260903200412 21 268 1.6 4.8 0.00 0.00 0.00 58 1021.0
20260903194913 21 313 3.2 6.4 0.00 0.00 0.00 59 1021.0
20260903191912 21 151 1.6 4.8 0.00 0.00 0.00 58 1020.8
20260903190412 21 359 1.6 6.4 0.00 0.00 0.00 59 1020.6
20260903184913 21 359 6.4 14.5 0.00 0.00 0.00 60 1020.5
20260903183413 21 240 1.6 3.2 0.00 0.00 0.00 59 1020.4
20260903181912 21 177 1.6 3.2 0.00 0.00 0.00 59 1020.3
20260903174912 22 221 1.6 3.2 0.00 0.00 0.00 56 1020.0
20260903173413 22 313 0.0 3.2 0.00 0.00 0.00 56 1020.0
20260903171913 22 297 3.2 4.8 0.00 0.00 0.00 54 1020.0
20260903170412 23 278 4.8 6.4 0.00 0.00 0.00 53 1019.7
20260903164912 23 359 3.2 8.0 0.00 0.00 0.00 52 1020.0
20260903161912 23 359 6.4 11.3 0.00 0.00 0.00 51 1019.8
20260903160413 23 316 3.2 9.7 0.00 0.00 0.00 49 1019.8
20260903154913 24 295 8.0 14.5 0.00 0.00 0.00 48 1019.9
20260903153413 24 359 6.4 12.9 0.00 0.00 0.00 48 1019.8
20260903151912 24 359 9.7 12.9 0.00 0.00 0.00 48 1019.8
20260903150413 24 292 9.7 16.1 0.00 0.00 0.00 48 1020.0
20260903144912 25 359 4.8 17.7 0.00 0.00 0.00 47 1020.0
20260903143412 24 300 6.4 20.9 0.00 0.00 0.00 47 1020.1
20260903141913 25 278 12.9 22.5 0.00 0.00 0.00 46 1020.3
20260903140413 25 313 8.0 24.1 0.00 0.00 0.00 46 1020.3
20260903133412 25 248 11.3 22.5 0.00 0.00 0.00 44 1020.2
20260903131912 25 247 9.7 19.3 0.00 0.00 0.00 45 1020.3
20260903130412 25 270 9.7 17.7 0.00 0.00 0.00 45 1020.2
20260903123412 25 308 9.7 22.5 0.00 0.00 0.00 43 1020.7
20260903121912 25 320 12.9 25.7 0.00 0.00 0.00 43 1020.6
20260903114913 25 308 6.4 20.9 0.00 0.00 0.00 47 1020.7
20260903113412 24 211 4.8 12.9 0.00 0.00 0.00 49 1020.7
20260903111913 24 249 6.4 16.1 0.00 0.00 0.00 50 1020.8
20260903110411 23 285 6.4 14.5 0.00 0.00 0.00 53 1020.9
20260903104912 23 294 11.3 17.7 0.00 0.00 0.00 51 1021.0
20260903101912 25 249 11.3 17.7 0.00 0.00 0.00 49 1021.2
20260903100413 24 232 11.3 24.1 0.00 0.00 0.00 51 1021.4
20260903094912 24 309 11.3 19.3 0.00 0.00 0.00 50 1021.6
20260903093412 24 315 6.4 16.1 0.00 0.00 0.00 50 1021.6
20260903091912 24 359 8.0 16.1 0.00 0.00 0.00 49 1021.5
20260903090413 23 224 6.4 17.7 0.00 0.00 0.00 51 1021.7
20260903084912 23 226 9.7 22.5 0.00 0.00 0.00 51 1021.7
20260903083413 23 268 4.8 16.1 0.00 0.00 0.00 52 1021.6
20260903081912 23 309 6.4 12.9 0.00 0.00 0.00 53 1021.6
20260903080412 22 247 3.2 12.9 0.00 0.00 0.00 57 1021.7
20260903074912 21 359 6.4 11.3 0.00 0.00 0.00 57 1021.8
20260903073412 21 359 6.4 9.7 0.00 0.00 0.00 58 1021.9
20260903071912 21 275 9.7 14.5 0.00 0.00 0.00 58 1021.8
20260903064912 20 195 3.2 6.4 0.00 0.00 0.00 64 1021.9
20260903063412 20 141 3.2 6.4 0.00 0.00 0.00 66 1021.7
20260903060412 18 212 1.6 4.8 0.00 0.00 0.00 70 1021.7
20260903054912 16 217 1.6 4.8 0.00 0.00 0.00 77 1021.7
20260903053412 15 62 1.6 3.2 0.00 0.00 0.00 82 1021.6
20260903051912 14 45 1.6 3.2 0.00 0.00 0.00 81 1021.6
20260903050412 15 88 1.6 3.2 0.00 0.00 0.00 80 1021.6
20260903044912 15 112 1.6 3.2 0.00 0.00 0.00 79 1021.4
20260903043412 15 116 0.0 1.6 0.00 0.00 0.00 78 1021.5
20260903040412 15 44 0.0 1.6 0.00 0.00 0.00 77 1021.3
20260903033412 15 359 0.0 1.6 0.00 0.00 0.00 75 1021.3
20260903031913 16 239 0.0 3.2 0.00 0.00 0.00 74 1021.3
20260903024912 16 200 1.6 3.2 0.00 0.00 0.00 74 1021.4
20260903023412 16 268 1.6 4.8 0.00 0.00 0.00 73 1021.4
20260903021912 16 45 0.0 3.2 0.00 0.00 0.00 72 1021.3
20260903020411 16 295 0.0 3.2 0.00 0.00 0.00 71 1021.1
20260903014912 16 330 1.6 3.2 0.00 0.00 0.00 69 1021.2
20260903013412 16 268 0.0 3.2 0.00 0.00 0.00 69 1021.0
20260903010412 17 245 1.6 6.4 0.00 0.00 0.00 68 1020.9
20260903004912 17 295 3.2 6.4 0.00 0.00 0.00 68 1020.8
20260903001912 17 212 1.6 6.4 0.00 0.00 0.00 69 1020.7
20260903000411 17 236 1.6 6.4 0.00 0.00 0.00 71 1020.8
20260902234912 16 249 1.6 3.2 0.00 0.00 0.00 73 1020.7
20260902231912 16 268 1.6 3.2 0.00 0.00 0.00 78 1020.7
20260902230412 16 123 0.0 3.2 0.00 0.00 0.00 79 1020.8
20260902223412 16 62 1.6 3.2 0.00 0.00 0.00 80 1020.8
20260902221912 16 62 0.0 3.2 0.00 0.00 0.00 80 1020.8
20260902214911 16 71 1.6 3.2 0.00 0.00 0.00 78 1020.7
20260902211912 17 177 1.6 4.8 0.00 0.00 0.00 78 1020.4
20260902210412 17 75 1.6 3.2 0.00 0.00 0.00 76 1020.4
20260902204912 18 55 1.6 3.2 0.00 0.00 0.00 75 1020.3